Pompano Beach, FL

6:48 AM EDT on October 21, 2017 (GMT -0400)
Pompano Beach

Weather History for KPMP - March, 2011

Change the Weather History Date:

Tuesday, March 1, 2011

  Actual Average Record
Temperature  
Mean Temperature 77 °F -  
Max Temperature 86 °F 78 °F 86 °F (1978)
Min Temperature 68 °F 59 °F 41 °F (1968)
Cooling Degree Days 12    
Growing Degree Days 27 (Base 50)    
Moisture  
Dew Point 66 °F    
Average Humidity 77    
Maximum Humidity 94    
Minimum Humidity 41    
Precipitation  
Precipitation 0.19 in - - ()
Sea Level Pressure  
Sea Level Pressure 30.05 in    
Wind  
Wind Speed 5 mph (WNW)    
Max Wind Speed 14 mph    
Max Gust Speed 22 mph    
Visibility 9 miles    
Events Rain    
Averages and records for this station are not official NWS values.
T = Trace of Precipitation, MM = Missing Value Source: NWS Daily Summary

Daily Weather History Graph

Daily Weather History Graph

Search for Another Location

Airport or City:

Trip Planner

Search our weather history database for the weather conditions in past years. The results will help you decide how hot, cold, wet, or windy it might be!

Date:

Astronomy

Mar. 01, 2011 Rise Set
Actual Time 6:44 AM EST 6:21 PM EST
Civil Twilight 6:21 AM EST 6:44 PM EST
Nautical Twilight 5:54 AM EST 7:11 PM EST
Astronomical Twilight 5:27 AM EST 7:38 PM EST
Moon 4:35 AM EST (3/1) 3:49 PM EST (3/1)
Length of Visible Light 12h 23m
Length of Day
11h 37m
Waning Crescent, 9% of the Moon is Illuminated
Mar 1
Waning Crescent
Mar 4
New
Mar 12
First Quarter
Mar 19
Full
Mar 26
Last Quarter

Hourly Weather History & Observations

Time (EST) Temp. Heat Index Dew Point Humidity Pressure Visibility Wind Dir Wind Speed Gust Speed Precip Events Conditions
12:53 AM 70.0 °F - 64.9 °F 84% 30.09 in 10.0 mi Calm Calm - N/A   Clear
1:53 AM 68.0 °F - 64.0 °F 87% 30.08 in 10.0 mi Calm Calm - N/A   Clear
2:53 AM 68.0 °F - 64.0 °F 87% 30.07 in 10.0 mi SW 3.5 mph - N/A   Clear
3:53 AM 68.0 °F - 64.9 °F 90% 30.05 in 10.0 mi SW 5.8 mph - N/A   Clear
4:53 AM 68.0 °F - 64.9 °F 90% 30.04 in 10.0 mi South 3.5 mph - N/A   Clear
5:53 AM 68.0 °F - 66.0 °F 93% 30.04 in 10.0 mi SW 6.9 mph - N/A   Clear
6:53 AM 68.0 °F - 66.0 °F 93% 30.05 in 8.0 mi SSW 3.5 mph - N/A   Clear
7:53 AM 71.1 °F - 68.0 °F 90% 30.05 in 9.0 mi SSW 6.9 mph - N/A   Clear
8:53 AM 75.0 °F - 69.1 °F 82% 30.09 in 10.0 mi West 10.4 mph - N/A   Partly Cloudy
9:53 AM 78.1 °F - 66.0 °F 66% 30.10 in 10.0 mi WSW 11.5 mph - N/A   Clear
10:53 AM 81.0 °F 81.6 °F 60.1 °F 49% 30.08 in 10.0 mi WSW 8.1 mph - N/A   Partly Cloudy
11:53 AM 82.9 °F 83.2 °F 60.1 °F 46% 30.06 in 10.0 mi WSW 12.7 mph 21.9 mph N/A   Partly Cloudy
1:53 PM 84.9 °F 84.4 °F 59.0 °F 41% 30.00 in 10.0 mi Variable 5.8 mph - N/A   Partly Cloudy
2:53 PM 86.0 °F 85.7 °F 60.1 °F 41% 29.98 in 10.0 mi WNW 8.1 mph 16.1 mph N/A   Scattered Clouds
3:53 PM 84.9 °F 84.8 °F 60.1 °F 43% 29.99 in 10.0 mi WNW 6.9 mph - N/A   Mostly Cloudy
4:53 PM 82.9 °F 83.7 °F 62.1 °F 49% 29.99 in 10.0 mi Variable 4.6 mph - N/A   Overcast
5:36 PM 73.4 °F - 69.8 °F 88% 30.02 in 2.0 mi North 13.8 mph 21.9 mph 0.05 in Rain Rain
5:53 PM 73.0 °F - 70.0 °F 90% 30.02 in 6.0 mi NNE 11.5 mph - 0.06 in Rain Light Rain
6:53 PM 73.0 °F - 68.0 °F 84% 30.03 in 10.0 mi NE 9.2 mph - 0.00 in   Scattered Clouds
7:53 PM 73.0 °F - 69.1 °F 87% 30.04 in 10.0 mi North 5.8 mph - N/A   Partly Cloudy
8:53 PM 72.0 °F - 68.0 °F 87% 30.06 in 10.0 mi North 9.2 mph - N/A   Partly Cloudy
9:51 PM 71.6 °F - 69.8 °F 94% 30.06 in 3.0 mi North 4.6 mph - 0.10 in Rain Rain
9:53 PM 71.1 °F - 69.1 °F 93% 30.06 in 3.0 mi NNW 3.5 mph - 0.11 in Rain Rain
10:53 PM 71.1 °F - 69.1 °F 93% 30.06 in 8.0 mi NNW 6.9 mph - 0.02 in   Overcast
11:53 PM 71.1 °F - 68.0 °F 90% 30.05 in 8.0 mi North 8.1 mph - 0.00 in Rain Light Rain